• In Belgium
  • List of Countries
  • For 7 days
  • Water Temperature
  • Satellite Maps
  • Weather Map
  • Weather Widgets
  • user-avatar
    Login

    Hourly Weather A Coruna

    Today, 25 November, Saturday

    Time Temperature Precipitation Wind Pressure Humidity
    00:00 +11°C° 0 mm 3 mps 764 mmHg 95%
    01:00 +11°C° 0 mm 4 mps 764 mmHg 95%
    02:00 +10°C° 0 mm 4 mps 764 mmHg 95%
    03:00 +10°C° 0 mm 4 mps 765 mmHg 95%
    04:00 +10°C° 0 mm 4 mps 765 mmHg 94%
    05:00 +8°C° 0 mm 5 mps 766 mmHg 94%
    06:00 +8°C° 0 mm 5 mps 766 mmHg 92%
    07:00 +9°C° 0 mm 5 mps 767 mmHg 90%
    08:00 +9°C° 0 mm 6 mps 767 mmHg 89%
    09:00 +9°C° 0 mm 6 mps 767 mmHg 84%
    10:00 +10°C° 0 mm 6 mps 768 mmHg 79%
    11:00 +11°C° 0 mm 6 mps 768 mmHg 74%
    12:00 +11°C° 0 mm 6 mps 768 mmHg 72%
    13:00 +11°C° 0 mm 6 mps 768 mmHg 70%
    14:00 +11°C° 0 mm 6 mps 767 mmHg 68%
    15:00 +10°C° 0 mm 6 mps 768 mmHg 72%
    16:00 +8°C° 0 mm 6 mps 768 mmHg 75%
    17:00 +7°C° 0 mm 6 mps 768 mmHg 79%
    18:00 +7°C° 0 mm 6 mps 769 mmHg 79%
    19:00 +7°C° 0 mm 6 mps 769 mmHg 80%
    20:00 +7°C° 0 mm 6 mps 769 mmHg 80%
    21:00 +7°C° 0 mm 6 mps 770 mmHg 81%
    22:00 +5°C° 0 mm 6 mps 770 mmHg 81%
    23:00 +5°C° 0 mm 6 mps 770 mmHg 82%

    Tomorrow, 26 November, Sunday

    Time Temperature Precipitation Wind Pressure Humidity
    00:00 +5°C° 0 mm 6 mps 770 mmHg 82%
    01:00 +5°C° 0 mm 6 mps 770 mmHg 82%
    02:00 +5°C° 0 mm 6 mps 770 mmHg 83%
    03:00 +5°C° 0 mm 6 mps 770 mmHg 84%
    04:00 +4°C° 0 mm 6 mps 770 mmHg 85%
    05:00 +5°C° 0 mm 5 mps 769 mmHg 85%
    06:00 +5°C° 0 mm 5 mps 770 mmHg 83%
    07:00 +6°C° 0 mm 5 mps 770 mmHg 80%
    08:00 +6°C° 0 mm 5 mps 770 mmHg 77%
    09:00 +8°C° 0 mm 5 mps 770 mmHg 71%
    10:00 +10°C° 0 mm 5 mps 770 mmHg 65%
    11:00 +13°C° 0 mm 5 mps 770 mmHg 58%
    12:00 +13°C° 0 mm 5 mps 769 mmHg 58%
    13:00 +13°C° 0 mm 5 mps 769 mmHg 59%
    14:00 +14°C° 0 mm 5 mps 769 mmHg 59%
    15:00 +12°C° 0 mm 5 mps 769 mmHg 67%
    16:00 +10°C° 0 mm 4 mps 769 mmHg 76%
    17:00 +7°C° 0 mm 4 mps 769 mmHg 84%
    18:00 +7°C° 0 mm 4 mps 769 mmHg 85%
    19:00 +6°C° 0 mm 4 mps 769 mmHg 86%
    20:00 +6°C° 0 mm 4 mps 770 mmHg 87%
    21:00 +7°C° 0 mm 3 mps 769 mmHg 87%
    22:00 +7°C° 0 mm 3 mps 769 mmHg 86%
    23:00 +5°C° 0 mm 3 mps 769 mmHg 85%

    Day after tomorrow, 27 November, Monday

    Time Temperature Precipitation Wind Pressure Humidity
    00:00 +7°C° 0 mm 3 mps 769 mmHg 83%
    01:00 +7°C° 0 mm 3 mps 769 mmHg 81%
    02:00 +7°C° 0 mm 3 mps 769 mmHg 78%
    03:00 +7°C° 0 mm 3 mps 768 mmHg 78%
    04:00 +7°C° 0 mm 3 mps 768 mmHg 78%
    05:00 +6°C° 0 mm 2 mps 768 mmHg 77%
    06:00 +7°C° 0 mm 2 mps 768 mmHg 75%
    07:00 +7°C° 0 mm 3 mps 768 mmHg 72%
    08:00 +8°C° 0 mm 3 mps 768 mmHg 70%
    09:00 +10°C° 0 mm 2 mps 768 mmHg 63%
    10:00 +14°C° 0 mm 2 mps 768 mmHg 56%
    11:00 +16°C° 0 mm 2 mps 768 mmHg 50%
    12:00 +16°C° 0 mm 2 mps 767 mmHg 51%
    13:00 +17°C° 0 mm 2 mps 766 mmHg 53%
    14:00 +17°C° 0 mm 2 mps 766 mmHg 54%
    15:00 +15°C° 0 mm 2 mps 766 mmHg 63%
    16:00 +13°C° 0 mm 2 mps 766 mmHg 71%
    17:00 +9°C° 0 mm 2 mps 766 mmHg 80%
    18:00 +9°C° 0 mm 2 mps 766 mmHg 81%
    19:00 +9°C° 0 mm 2 mps 766 mmHg 82%
    20:00 +8°C° 0 mm 2 mps 766 mmHg 83%
    21:00 +8°C° 0 mm 2 mps 766 mmHg 83%
    22:00 +8°C° 0 mm 2 mps 765 mmHg 83%
    23:00 +8°C° 0 mm 2 mps 765 mmHg 83%

    28 November, Tuesday

    Time Temperature Precipitation Wind Pressure Humidity
    00:00 +8°C° 0 mm 2 mps 764 mmHg 85%
    01:00 +8°C° 0 mm 2 mps 764 mmHg 86%
    02:00 +9°C° 0 mm 1 mps 764 mmHg 87%
    03:00 +9°C° 0 mm 1 mps 763 mmHg 89%
    04:00 +8°C° 0 mm 2 mps 763 mmHg 91%
    05:00 +8°C° 0 mm 2 mps 763 mmHg 93%
    06:00 +8°C° 0 mm 2 mps 763 mmHg 91%
    07:00 +9°C° 0 mm 2 mps 763 mmHg 88%
    08:00 +9°C° 0 mm 2 mps 763 mmHg 86%
    09:00 +12°C° 0 mm 2 mps 762 mmHg 80%
    10:00 +13°C° 0 mm 2 mps 762 mmHg 73%
    11:00 +15°C° 0 mm 2 mps 761 mmHg 67%
    12:00 +14°C° 0 mm 3 mps 761 mmHg 67%
    13:00 +14°C° 0 mm 3 mps 760 mmHg 68%
    14:00 +13°C° 0 mm 3 mps 760 mmHg 68%
    15:00 +12°C° 0 mm 3 mps 760 mmHg 76%
    16:00 +10°C° 0 mm 3 mps 760 mmHg 84%
    17:00 +8°C° 0 mm 3 mps 760 mmHg 92%
    18:00 +8°C° 0.1 mm 4 mps 760 mmHg 92%
    19:00 +8°C° 0.1 mm 4 mps 760 mmHg 92%
    20:00 +9°C° 0.1 mm 5 mps 760 mmHg 92%
    21:00 +8°C° 0.1 mm 5 mps 760 mmHg 92%
    22:00 +8°C° 0.1 mm 6 mps 760 mmHg 92%
    23:00 +8°C° 0.1 mm 6 mps 760 mmHg 91%

    29 November, Wednesday

    Time Temperature Precipitation Wind Pressure Humidity
    00:00 +8°C° 0 mm 6 mps 760 mmHg 90%
    01:00 +8°C° 0 mm 6 mps 760 mmHg 88%
    02:00 +7°C° 0 mm 6 mps 760 mmHg 86%
    03:00 +7°C° 0 mm 6 mps 760 mmHg 85%
    04:00 +5°C° 0 mm 6 mps 760 mmHg 83%
    05:00 +5°C° 0 mm 6 mps 760 mmHg 82%
    06:00 +5°C° 0.1 mm 6 mps 760 mmHg 81%
    07:00 +7°C° 0.1 mm 6 mps 760 mmHg 80%
    08:00 +7°C° 0.1 mm 6 mps 761 mmHg 80%
    09:00 +8°C° 0.1 mm 6 mps 761 mmHg 74%
    10:00 +9°C° 0.1 mm 6 mps 761 mmHg 68%
    11:00 +10°C° 0.1 mm 6 mps 761 mmHg 62%
    12:00 +10°C° 0 mm 6 mps 761 mmHg 62%
    13:00 +10°C° 0 mm 5 mps 761 mmHg 62%
    14:00 +10°C° 0 mm 5 mps 760 mmHg 62%
    15:00 +9°C° 0 mm 5 mps 761 mmHg 69%
    16:00 +7°C° 0 mm 4 mps 761 mmHg 76%
    17:00 +6°C° 0 mm 4 mps 762 mmHg 83%
    18:00 +5°C° 0.1 mm 4 mps 762 mmHg 84%
    19:00 +5°C° 0.1 mm 4 mps 762 mmHg 86%
    20:00 +5°C° 0.1 mm 3 mps 763 mmHg 87%
    21:00 +5°C° 0.1 mm 3 mps 763 mmHg 87%
    22:00 +5°C° 0.1 mm 3 mps 763 mmHg 88%
    23:00 +5°C° 0.1 mm 3 mps 763 mmHg 88%

    30 November, Thursday

    Time Temperature Precipitation Wind Pressure Humidity
    00:00 +4°C° 0.1 mm 3 mps 763 mmHg 90%
    01:00 +4°C° 0.1 mm 3 mps 763 mmHg 91%
    02:00 +4°C° 0.1 mm 3 mps 763 mmHg 93%
    03:00 +4°C° 0.1 mm 3 mps 764 mmHg 93%
    04:00 +4°C° 0.1 mm 3 mps 764 mmHg 94%
    05:00 +4°C° 0.1 mm 3 mps 764 mmHg 94%
    06:00 +4°C° 0.1 mm 3 mps 764 mmHg 93%
    07:00 +5°C° 0.1 mm 3 mps 765 mmHg 91%
    08:00 +5°C° 0.1 mm 3 mps 765 mmHg 89%
    09:00 +8°C° 0 mm 3 mps 765 mmHg 80%
    10:00 +10°C° 0 mm 3 mps 765 mmHg 71%
    11:00 +11°C° 0 mm 3 mps 765 mmHg 62%
    12:00 +11°C° 0 mm 3 mps 765 mmHg 61%
    13:00 +11°C° 0 mm 3 mps 765 mmHg 60%
    14:00 +12°C° 0 mm 3 mps 765 mmHg 59%
    15:00 +10°C° 0 mm 3 mps 766 mmHg 68%
    16:00 +8°C° 0 mm 3 mps 766 mmHg 77%
    17:00 +5°C° 0 mm 3 mps 767 mmHg 87%
    18:00 +5°C° 0 mm 3 mps 767 mmHg 88%
    19:00 +5°C° 0 mm 2 mps 768 mmHg 90%
    20:00 +5°C° 0 mm 2 mps 768 mmHg 92%
    21:00 +5°C° 0 mm 2 mps 768 mmHg 92%
    22:00 +4°C° 0 mm 2 mps 768 mmHg 93%
    23:00 +4°C° 0 mm 2 mps 768 mmHg 93%
    Show more